Jasper, TX

12:01 PM CDT on October 18, 2017 (GMT -0500)
Jasper County-Bell

Weather History for KJAS - July, 2013

Change the Weather History Date:

Wednesday, July 10, 2013

  Actual Average (KPOE) Record (KPOE)
Temperature  
Mean Temperature 84 °F -  
Max Temperature 95 °F 89 °F 100 °F (1998)
Min Temperature 72 °F 71 °F 69 °F (2017)
Cooling Degree Days 18    
Growing Degree Days 34 (Base 50)    
Moisture  
Dew Point 73 °F    
Average Humidity 71    
Maximum Humidity 95    
Minimum Humidity 41    
Precipitation  
Precipitation 0.00 in - - ()
Sea Level Pressure  
Sea Level Pressure 30.07 in    
Wind  
Wind Speed 2 mph (SSW)    
Max Wind Speed 8 mph    
Max Gust Speed -    
Visibility 10 miles    
Events      
Averages and records for this station are not official NWS values.
T = Trace of Precipitation, MM = Missing Value Source: NWS Daily Summary

Daily Weather History Graph

Daily Weather History Graph

Search for Another Location

Airport or City:

Trip Planner

Search our weather history database for the weather conditions in past years. The results will help you decide how hot, cold, wet, or windy it might be!

Date:

Astronomy

Jul. 10, 2013 Rise Set
Actual Time 6:20 AM CDT 8:21 PM CDT
Civil Twilight 5:53 AM CDT 8:49 PM CDT
Nautical Twilight 5:20 AM CDT 9:22 PM CDT
Astronomical Twilight 4:44 AM CDT 9:57 PM CDT
Moon 8:30 AM CDT (7/10) 9:46 PM CDT (7/10)
Length of Visible Light 14h 55m
Length of Day
14h 01m
Waxing Crescent, 5% of the Moon is Illuminated
Jul 10
Waxing Crescent
Jul 15
First Quarter
Jul 22
Full
Jul 29
Last Quarter
Aug 6
New

Hourly Weather History & Observations

Time (CDT) Temp. Heat Index Dew Point Humidity Pressure Visibility Wind Dir Wind Speed Gust Speed Precip Events Conditions
12:15 AM 79.2 °F - 74.1 °F 84% 30.12 in 10.0 mi Calm Calm - N/A   Clear
12:35 AM 78.8 °F - 74.1 °F 85% 30.11 in 10.0 mi Calm Calm - N/A   Clear
12:55 AM 78.1 °F - 73.9 °F 87% 30.11 in 10.0 mi Calm Calm - N/A   Clear
1:15 AM 77.2 °F - 73.6 °F 89% 30.11 in 10.0 mi Calm Calm - N/A   Clear
1:35 AM 76.1 °F - 73.4 °F 91% 30.11 in 10.0 mi Calm Calm - N/A   Clear
1:55 AM 75.9 °F - 73.4 °F 92% 30.11 in 10.0 mi Calm Calm - N/A   Clear
2:15 AM 76.1 °F - 73.4 °F 91% 30.11 in 10.0 mi Calm Calm - N/A   Clear
2:55 AM 74.7 °F - 72.7 °F 94% 30.11 in 10.0 mi Calm Calm - N/A   Clear
3:15 AM 74.1 °F - 72.5 °F 95% 30.11 in 10.0 mi Calm Calm - N/A   Clear
3:35 AM 73.6 °F - 72.0 °F 95% 30.11 in 3.0 mi Calm Calm - N/A   Clear
3:55 AM 73.8 °F - 72.3 °F 95% 30.11 in 7.0 mi Calm Calm - N/A   Clear
4:15 AM 73.4 °F - 72.0 °F 95% 30.11 in 10.0 mi Calm Calm - N/A   Scattered Clouds
4:35 AM 73.0 °F - 71.6 °F 95% 30.11 in 7.0 mi Calm Calm - N/A   Scattered Clouds
4:55 AM 73.0 °F - 71.6 °F 95% 30.12 in 7.0 mi Calm Calm - N/A   Mostly Cloudy
5:15 AM 73.0 °F - 71.6 °F 95% 30.11 in 7.0 mi Calm Calm - N/A   Mostly Cloudy
5:35 AM 73.0 °F - 71.6 °F 95% 30.11 in 10.0 mi Calm Calm - N/A   Scattered Clouds
5:55 AM 73.2 °F - 71.6 °F 95% 30.11 in 10.0 mi Calm Calm - N/A   Scattered Clouds
6:15 AM 73.4 °F - 71.8 °F 95% 30.11 in 10.0 mi Calm Calm - N/A   Scattered Clouds
6:35 AM 73.0 °F - 71.4 °F 95% 30.11 in 7.0 mi Calm Calm - N/A   Clear
6:55 AM 72.9 °F - 71.4 °F 95% 30.11 in 7.0 mi Calm Calm - N/A   Clear
7:15 AM 73.4 °F - 71.8 °F 95% 30.12 in 7.0 mi Calm Calm - N/A   Clear
7:35 AM 74.1 °F - 72.7 °F 95% 30.12 in 7.0 mi Calm Calm - N/A   Scattered Clouds
7:55 AM 75.4 °F - 73.6 °F 94% 30.13 in 10.0 mi Calm Calm - N/A   Clear
8:15 AM 77.0 °F - 74.3 °F 91% 30.13 in 10.0 mi Calm Calm - N/A   Clear
8:35 AM 79.0 °F - 75.2 °F 88% 30.13 in 10.0 mi Calm Calm - N/A   Clear
8:55 AM 81.3 °F 88.0 °F 75.9 °F 84% 30.13 in 10.0 mi West 3.5 mph - N/A   Clear
9:15 AM 82.8 °F 91.0 °F 76.3 °F 81% 30.13 in 10.0 mi Calm Calm - N/A   Clear
9:35 AM 84.2 °F 93.0 °F 75.7 °F 76% 30.12 in 10.0 mi SW 8.1 mph - N/A   Scattered Clouds
9:55 AM 85.6 °F 94.6 °F 75.4 °F 71% 30.12 in 10.0 mi SW 5.8 mph - N/A   Scattered Clouds
10:15 AM 86.2 °F 95.1 °F 74.8 °F 69% 30.13 in 10.0 mi WSW 5.8 mph - N/A   Scattered Clouds
10:35 AM 86.5 °F 95.0 °F 74.3 °F 67% 30.13 in 10.0 mi SW 6.9 mph - N/A   Scattered Clouds
10:55 AM 87.6 °F 96.2 °F 74.1 °F 64% 30.13 in 10.0 mi SW 3.5 mph - N/A   Clear
11:15 AM 88.5 °F 96.8 °F 73.8 °F 61% 30.12 in 10.0 mi SW 5.8 mph - N/A   Clear
11:35 AM 89.2 °F 97.9 °F 73.6 °F 60% 30.12 in 10.0 mi SSW 5.8 mph - N/A   Clear
11:55 AM 89.8 °F 97.5 °F 72.5 °F 57% 30.12 in 10.0 mi SSW 5.8 mph - N/A   Clear
12:15 PM 91.0 °F 99.3 °F 72.7 °F 55% 30.11 in 10.0 mi SSW 6.9 mph - N/A   Scattered Clouds
12:35 PM 91.6 °F 98.8 °F 71.4 °F 52% 30.11 in 10.0 mi SW 5.8 mph - N/A   Scattered Clouds
12:55 PM 90.9 °F 97.8 °F 71.8 °F 53% 30.10 in 10.0 mi SW 5.8 mph - N/A   Scattered Clouds
1:15 PM 91.6 °F 98.8 °F 71.4 °F 52% 30.09 in 10.0 mi Calm Calm - N/A   Scattered Clouds
1:35 PM 92.1 °F 99.4 °F 71.4 °F 51% 30.09 in 10.0 mi SSW 4.6 mph - N/A   Scattered Clouds
1:55 PM 92.5 °F 99.6 °F 71.2 °F 50% 30.08 in 10.0 mi SE 3.5 mph - N/A   Scattered Clouds
2:15 PM 93.0 °F 100.1 °F 71.2 °F 49% 30.08 in 10.0 mi South 4.6 mph - N/A   Scattered Clouds
2:35 PM 93.6 °F 100.1 °F 70.5 °F 47% 30.07 in 10.0 mi SE 5.8 mph - N/A   Scattered Clouds
2:55 PM 93.2 °F 99.9 °F 70.9 °F 48% 30.06 in 10.0 mi South 3.5 mph - N/A   Scattered Clouds
3:15 PM 93.2 °F 99.9 °F 70.7 °F 48% 30.05 in 10.0 mi SE 4.6 mph - N/A   Scattered Clouds
3:35 PM 94.5 °F 101.4 °F 70.5 °F 46% 30.04 in 10.0 mi South 3.5 mph - N/A   Clear
3:55 PM 94.5 °F 100.8 °F 69.8 °F 45% 30.03 in 10.0 mi Calm Calm - N/A   Clear
4:15 PM 95.2 °F 101.0 °F 69.6 °F 43% 30.02 in 10.0 mi South 4.6 mph - N/A   Scattered Clouds
4:35 PM 95.9 °F 101.9 °F 69.4 °F 42% 30.01 in 10.0 mi South 8.1 mph - N/A   Scattered Clouds
4:55 PM 95.2 °F 100.5 °F 68.5 °F 42% 30.01 in 10.0 mi Calm Calm - N/A   Clear
5:15 PM 95.4 °F 101.4 °F 69.4 °F 43% 30.00 in 10.0 mi South 5.8 mph - N/A   Clear
5:35 PM 95.5 °F 100.6 °F 68.7 °F 41% 29.99 in 10.0 mi Calm Calm - N/A   Scattered Clouds
5:55 PM 95.4 °F 100.8 °F 68.7 °F 42% 29.98 in 10.0 mi South 5.8 mph - N/A   Scattered Clouds
6:15 PM 95.2 °F 101.0 °F 69.3 °F 43% 29.98 in 10.0 mi South 6.9 mph - N/A   Clear
6:35 PM 95.0 °F 100.1 °F 68.9 °F 42% 29.97 in 10.0 mi South 5.8 mph - N/A   Clear
6:55 PM 93.9 °F 101.5 °F 71.2 °F 48% 29.98 in 10.0 mi South 6.9 mph - N/A   Clear
7:15 PM 91.9 °F 101.9 °F 74.3 °F 56% 29.98 in 10.0 mi South 5.8 mph - N/A   Clear
7:35 PM 90.7 °F 101.3 °F 75.0 °F 60% 29.99 in 10.0 mi SSE 5.8 mph - N/A   Clear
7:55 PM 89.1 °F 99.6 °F 75.4 °F 64% 29.99 in 10.0 mi SSE 6.9 mph - N/A   Clear
8:15 PM 87.8 °F 97.6 °F 75.4 °F 66% 29.99 in 10.0 mi SSE 4.6 mph - N/A   Clear
8:35 PM 86.5 °F 95.9 °F 75.4 °F 69% 30.00 in 10.0 mi SSE 3.5 mph - N/A   Clear
8:55 PM 85.6 °F 94.6 °F 75.4 °F 71% 30.00 in 10.0 mi South 3.5 mph - N/A   Clear
9:15 PM 84.4 °F 92.7 °F 75.2 °F 74% 30.01 in 10.0 mi South 3.5 mph - N/A   Clear
9:35 PM 84.0 °F 91.9 °F 74.8 °F 74% 30.01 in 10.0 mi South 3.5 mph - N/A   Clear
9:55 PM 82.6 °F 89.4 °F 74.8 °F 77% 30.00 in 10.0 mi SSW 3.5 mph - N/A   Clear
10:15 PM 82.0 °F 88.4 °F 74.5 °F 78% 30.01 in 10.0 mi South 3.5 mph - N/A   Clear
10:35 PM 81.9 °F 87.7 °F 74.1 °F 77% 30.01 in 10.0 mi South 5.8 mph - N/A   Clear
10:55 PM 81.7 °F 87.1 °F 73.6 °F 76% 30.01 in 10.0 mi SSW 4.6 mph - N/A   Clear
11:15 PM 81.5 °F 86.7 °F 73.4 °F 76% 30.02 in 10.0 mi SSW 3.5 mph - N/A   Clear
11:35 PM 81.0 °F 86.0 °F 73.6 °F 78% 30.02 in 10.0 mi SSW 4.6 mph - N/A   Clear
11:55 PM 80.2 °F 84.7 °F 73.6 °F 80% 30.02 in 10.0 mi SSW 3.5 mph - N/A   Clear